Погода в Гиа де Исора

Испания     28°12′41″N   16°46′54″W
темп.,
°C
ветер,
м/с
пор.,
м/с
влажн.,
%
обл.,
%
осадки,
мм/ч
давл.,
гПа
погр.,
м
22 апреля, чт
чт2201:00+14св12573 0.0 101960
04:00+13св12542 0.0 101737
07:00+13всв22525 0.0 101734
10:00+17ю11471 0.0 1018344
13:00+19зсз32534 0.0 1018645
16:00+19зсз32565 0.0 1017672
19:00+18сз33491 0.0 1017513
22:00+16ссз23540 0.0 1018132
23 апреля, пт
пт2301:00+15с11555 0.0 101833
04:00+14с335718 0.0 101648
07:00+14ссв335149 0.0 101635
10:00+17с225514 0.0 1017534
13:00+19сз22577 0.0 1016923
16:00+17ссз328172 0.3 1015637
19:00+16ссз337239 0.3 1015547
22:00+13ссв238334 0.0 1017204
24 апреля, сб
сб2401:00+12с228537 0.0 1017228
04:00+11с338340 0.0 1015194
07:00+10ссв338024 0.0 1014216
10:00+13с226630 0.0 1015540
13:00+16зсз43525 0.0 1014990
16:00+16зсз76574 0.0 1013876
19:00+14сз556021 0.0 1013704
22:00+11сз338334 0.0 1014264
25 апреля, вс
вс2501:00+11ссз238557 0.1 1014380
04:00+11сз338861 0.2 1012316
07:00+10с338762 0.3 1012307
10:00+13ссз226934 0.0 1013593
13:00+16сз43573 0.0 1013885
16:00+16зсз656324 0.0 1012874
19:00+13сз557747 0.0 1013538
22:00+12с23815 0.0 1014218
26 апреля, пн
пн2601:00+11с118533 0.0 101485
04:00+11ссв11805 0.0 101344
07:00+10ссв11730 0.0 101325
10:00+15зсз22571 0.0 1014513
13:00+17з325718 0.0 1014925
16:00+17з326031 0.0 1012897
19:00+15зсз437941 0.1 1013586
22:00+14с227930 0.1 1014317